1514959200.45,62065,6.88,72248.8,-14.15,-27.71,-31.67,0,*66
1514959201.72,62066,6.88,72250.0,-14.17,-27.77,-31.73,0,*64
1514959202.99,62067,6.88,72250.3,-14.17,-27.77,-31.73,0,*65
1514959204.26,62068,6.88,72250.0,-14.17,-27.77,-31.73,0,*6A
1514959205.53,62069,6.88,72254.0,-14.21,-27.77,-31.61,0,*6D
1514959206.83,62070,6.88,72248.8,-14.17,-27.45,-31.39,0,*6C
1514959208.1,62071,6.88,72254.5,-14.17,-27.55,-31.57,0,*64
1514959209.37,62072,6.88,72254.0,-14.17,-27.55,-31.39,0,*6F
1514959210.67,62073,6.88,72258.3,-14.17,-27.61,-31.57,0,*61
1514959211.97,62074,6.88,72258.0,-14.17,-27.45,-31.51,0,*66
1514959213.27,62075,6.88,72256.0,-14.17,-27.45,-31.51,0,*67
1514959214.54,62076,6.88,72256.0,-14.17,-27.55,-31.39,0,*6B
1514959215.84,62077,6.88,72252.5,-14.21,-27.45,-31.39,0,*6E
1514959217.11,62078,6.88,72254.5,-14.17,-27.45,-31.33,0,*6E
1514959218.41,62079,6.88,72254.0,-14.21,-27.39,-31.39,0,*6B
1514959219.71,62080,6.88,72250.5,-14.17,-27.39,-31.23,0,*63
1514959220.99,62081,6.88,72254.5,-14.17,-27.71,-31.51,0,*6B
1514959222.25,62082,6.88,72252.0,-14.17,-27.71,-31.57,0,*6E
1514959223.53,62083,6.88,72252.0,-14.17,-27.77,-31.61,0,*6C
1514959224.8,62084,6.88,72250.8,-14.17,-27.71,-31.61,0,*6D
1514959226.07,62085,6.88,72252.0,-14.21,-27.93,-31.73,0,*66
1514959227.35,62086,6.88,72248.0,-14.17,-27.71,-31.61,0,*6F
1514959228.61,62087,6.88,72250.0,-14.17,-27.77,-31.73,0,*6B
1514959229.89,62088,6.88,72248.3,-14.17,-27.71,-31.61,0,*61
1514959231.15,62089,6.88,72254.0,-14.17,-27.89,-31.73,0,*64
1514959232.42,62090,6.88,72252.8,-14.21,-27.77,-31.73,0,*68
1514959233.69,62091,6.88,72252.5,-14.17,-27.89,-31.73,0,*6D
1514959234.96,62092,6.88,72250.0,-14.17,-27.77,-31.57,0,*69
1514959236.22,62093,6.88,72250.8,-14.17,-27.89,-31.73,0,*6F
1514959237.49,62094,6.88,72252.0,-14.17,-27.77,-31.73,0,*69
1514959238.74,62095,6.88,72248.5,-14.21,-27.77,-31.79,0,*67
1514959239.99,62096,6.88,72248.3,-14.21,-27.93,-31.79,0,*6E
1514959241.27,62097,6.88,72246.0,-14.21,-27.55,-31.51,0,*6F
1514959242.57,62098,6.88,72250.3,-14.17,-27.61,-31.61,0,*61
1514959243.88,62099,6.88,72252.3,-14.17,-27.61,-31.51,0,*63
1514959245.18,62100,6.88,72252.8,-14.21,-27.39,-31.39,0,*64
1514959246.48,62101,6.88,72248.3,-14.17,-27.45,-31.39,0,*6B
1514959247.75,62102,6.88,72252.3,-14.21,-27.55,-31.39,0,*6C
1514959249.05,62103,6.88,72252.5,-14.17,-27.61,-31.73,0,*61
1514959250.36,62104,6.88,72254.0,-14.21,-27.39,-31.39,0,*60
1514959251.6,62105,6.88,72250.3,-14.15,-27.51,-31.57,0,*60
1514959252.87,62106,6.88,72248.0,-14.17,-27.71,-31.61,0,*66
1514959254.11,62107,6.88,72248.0,-14.17,-27.93,-31.79,0,*62
1514959255.36,62108,6.88,72250.5,-14.17,-27.93,-31.79,0,*6D
1514959256.66,62109,6.88,72252.3,-14.17,-28.21,-31.95,0,*68
1514959257.97,62110,6.88,72252.5,-14.21,-28.05,-31.91,0,*67
1514959259.27,62111,6.88,72258.5,-14.17,-27.61,-31.73,0,*62
1514959260.57,62112,6.88,72256.3,-14.17,-27.61,-31.73,0,*61
1514959261.84,62113,6.88,72248.5,-14.17,-27.77,-31.73,0,*67
1514959263.14,62114,6.88,72248.8,-14.17,-27.61,-31.57,0,*61
1514959264.4,62115,6.88,72244.8,-14.17,-27.71,-31.73,0,*67
1514959265.68,62116,6.88,72244.8,-14.21,-27.71,-31.61,0,*62
1514959266.95,62117,6.88,72242.0,-14.17,-27.89,-31.73,0,*62
1514959268.21,62118,6.88,72240.0,-14.17,-27.89,-31.73,0,*6D
1514959269.48,62119,6.88,72244.5,-14.17,-28.05,-31.79,0,*6D
1514959270.73,62120,6.88,72246.3,-14.17,-27.93,-31.79,0,*67
1514959271.98,62121,6.88,72240.8,-14.17,-27.93,-31.79,0,*66
1514959273.22,62122,6.88,72244.8,-14.17,-27.93,-31.79,0,*65
1514959274.53,62123,6.88,72248.0,-14.17,-28.21,-32.07,0,*68
1514959275.83,62124,6.88,72248.3,-14.17,-28.09,-32.07,0,*65
1514959277.1,62125,6.88,72250.5,-14.17,-27.71,-31.61,0,*67
1514959278.37,62126,6.88,72250.3,-14.21,-27.55,-31.57,0,*62
1514959279.64,62127,6.88,72246.3,-14.21,-27.71,-31.57,0,*65
1514959280.91,62128,6.88,72246.3,-14.17,-27.55,-31.57,0,*69
1514959282.18,62129,6.88,72244.5,-14.21,-27.71,-31.73,0,*6D
1514959283.45,62130,6.88,72244.8,-14.17,-27.71,-31.73,0,*60
1514959284.71,62131,6.88,72246.8,-14.17,-27.55,-31.57,0,*61
1514959286.01,62132,6.88,72248.0,-14.17,-27.45,-31.51,0,*65
1514959287.31,62133,6.88,72244.3,-14.17,-27.23,-31.23,0,*61
1514959288.58,62134,6.88,72246.0,-14.17,-27.77,-31.73,0,*62
1514959289.84,62135,6.88,72248.5,-14.13,-27.89,-31.73,0,*66
1514959291.08,62136,6.88,72250.0,-14.15,-27.89,-31.85,0,*6A
1514959292.3,62137,6.88,72248.8,-14.15,-27.71,-31.67,0,*60
1514959293.54,62138,6.88,72246.8,-14.15,-27.55,-31.57,0,*6A
1514959294.81,62139,6.88,72246.8,-14.13,-27.39,-31.33,0,*65
1514959296.03,62140,6.88,72242.8,-14.15,-27.55,-31.45,0,*66
1514959297.3,62141,6.88,72242.3,-14.13,-27.89,-31.73,0,*65
1514959298.56,62142,6.88,72246.3,-14.13,-27.67,-31.57,0,*60
1514959299.81,62143,6.88,72248.0,-14.13,-27.67,-31.67,0,*62
1514959301.05,62144,6.88,72250.8,-14.15,-27.67,-31.57,0,*60
1514959302.33,62145,6.88,72248.5,-14.13,-27.39,-31.45,0,*6F
1514959303.57,62146,6.88,72246.0,-14.15,-27.51,-31.51,0,*61
1514959304.82,62147,6.88,72246.8,-14.13,-27.51,-31.45,0,*63
1514959306.09,62148,6.88,72242.5,-14.13,-27.55,-31.57,0,*6B
1514959307.33,62149,6.88,72240.0,-14.15,-27.67,-31.57,0,*6D
1514959308.55,62150,6.88,72244.8,-14.15,-27.67,-31.67,0,*66
1514959309.82,62151,6.88,72246.8,-14.13,-27.51,-31.51,0,*61
1514959311.09,62152,6.88,72244.8,-14.13,-27.89,-31.85,0,*6E
1514959312.35,62153,6.88,72246.0,-14.13,-27.71,-31.73,0,*61
1514959313.61,62154,6.88,72248.3,-14.13,-27.71,-31.73,0,*66
1514959314.86,62155,6.88,72248.0,-14.13,-27.71,-31.67,0,*62
1514959316.12,62156,6.88,72250.8,-14.13,-27.99,-31.67,0,*67
1514959317.34,62157,6.88,72246.3,-14.11,-27.93,-31.79,0,*61
1514959318.57,62158,6.88,72246.0,-14.11,-27.83,-31.79,0,*6F
1514959319.84,62159,6.88,72244.3,-14.13,-27.99,-32.01,0,*6B
1514959321.11,62160,6.88,72246.3,-14.13,-28.05,-32.01,0,*6B
1514959322.34,62161,6.88,72244.5,-14.11,-27.83,-31.79,0,*65
1514959323.56,62162,6.88,72248.5,-14.11,-27.93,-31.79,0,*67
1514959324.83,62163,6.88,72244.3,-14.11,-27.99,-31.95,0,*6E
1514959326.07,62164,6.88,72246.5,-14.13,-28.15,-32.01,0,*6E
1514959327.31,62165,6.88,72248.5,-14.13,-28.15,-32.01,0,*6F
1514959328.55,62166,6.88,72244.3,-14.13,-28.15,-32.01,0,*6C
1514959329.82,62167,6.88,72244.0,-14.13,-28.05,-32.01,0,*6C
1514959331.12,62168,6.88,72244.0,-14.13,-28.05,-32.07,0,*65
1514959332.36,62169,6.88,72240.3,-14.13,-28.15,-32.01,0,*63
1514959333.67,62170,6.88,72240.3,-14.13,-28.05,-32.19,0,*63
1514959334.94,62171,6.88,72240.8,-14.13,-28.15,-32.19,0,*63
1514959336.21,62172,6.88,72240.0,-14.13,-28.15,-32.19,0,*60
1514959337.45,62173,6.88,72242.0,-14.15,-28.25,-32.23,0,*6D
1514959338.7,62174,6.88,72242.3,-14.15,-28.25,-32.23,0,*6A
1514959339.97,62175,6.88,72242.3,-14.13,-28.25,-32.23,0,*6D
1514959341.28,62176,6.88,72242.5,-14.13,-28.05,-32.07,0,*6A
1514959342.55,62177,6.88,72240.5,-14.15,-28.21,-32.07,0,*6B
1514959343.82,62178,6.88,72242.3,-14.13,-28.15,-32.07,0,*65
1514959345.11,62179,6.88,72240.8,-14.13,-27.99,-31.73,0,*6F
1514959346.41,62180,6.88,72242.3,-14.13,-28.05,-31.91,0,*6F
1514959347.65,62181,6.88,72236.0,-14.11,-27.99,-31.79,0,*60
1514959348.89,62182,6.88,72242.0,-14.11,-27.83,-31.79,0,*68
1514959350.13,62183,6.88,72244.8,-14.11,-27.93,-31.95,0,*6A
1514959351.4,62184,6.88,72244.3,-14.13,-28.15,-32.19,0,*69
1514959352.7,62185,6.88,72244.5,-14.13,-28.05,-32.07,0,*66
1514959354.0,62186,6.88,72246.3,-14.13,-28.05,-31.91,0,*69
1514959355.22,62187,6.88,72246.5,-14.15,-28.15,-32.01,0,*65
1514959356.52,62188,6.88,72244.5,-14.13,-28.05,-32.19,0,*64
1514959357.76,62189,6.88,72244.3,-14.13,-28.15,-32.01,0,*6D
1514959359.03,62190,6.88,72244.3,-14.13,-28.25,-32.35,0,*61
1514959360.3,62191,6.88,72244.5,-14.13,-28.25,-32.35,0,*60
1514959361.58,62192,6.88,72246.3,-14.13,-28.21,-32.23,0,*60
1514959362.88,62193,6.88,72244.5,-14.13,-28.21,-32.19,0,*68
1514959364.15,62194,6.88,72246.8,-14.13,-28.21,-32.35,0,*61
1514959365.44,62195,6.88,72246.5,-14.13,-28.43,-32.63,0,*67
1514959366.68,62196,6.88,72244.3,-14.15,-28.59,-32.57,0,*6E
1514959367.95,62197,6.88,72246.3,-14.13,-28.69,-32.63,0,*6D
1514959369.21,62198,6.88,72246.8,-14.13,-28.43,-32.57,0,*6D
1514959370.48,62199,6.88,72244.5,-14.13,-28.69,-32.63,0,*63
1514959371.73,62200,6.88,72244.8,-14.15,-28.75,-32.91,0,*66
1514959373.0,62201,6.88,72246.5,-14.13,-28.85,-32.75,0,*64
1514959374.27,62202,6.88,72246.0,-14.15,-28.59,-32.63,0,*67
1514959375.55,62203,6.88,72246.5,-14.15,-28.59,-32.63,0,*66
1514959376.82,62204,6.88,72244.3,-14.15,-28.75,-32.79,0,*64
1514959378.09,62205,6.88,72240.8,-14.15,-28.91,-32.79,0,*6F
1514959379.34,62206,6.88,72244.3,-14.17,-28.97,-33.03,0,*64
1514959380.62,62207,6.88,72242.3,-14.15,-29.01,-33.09,0,*63
1514959381.88,62208,6.88,72240.5,-14.17,-29.13,-33.15,0,*60
1514959383.13,62209,6.88,72244.0,-14.17,-29.07,-33.03,0,*63
1514959384.38,62210,6.88,72244.8,-14.21,-29.07,-33.21,0,*6E
1514959385.63,62211,6.88,72244.8,-14.21,-29.07,-33.15,0,*68
1514959386.93,62212,6.88,72244.3,-14.21,-28.79,-32.97,0,*68
1514959388.23,62213,6.88,72244.5,-14.17,-28.79,-32.85,0,*6F
1514959389.46,62214,6.88,72246.0,-14.23,-28.97,-33.03,0,*60
1514959390.76,62215,6.88,72244.0,-14.21,-28.91,-32.79,0,*69
1514959392.04,62216,6.88,72242.3,-14.21,-28.97,-32.97,0,*6C
1514959393.29,62217,6.88,72244.3,-14.23,-28.85,-32.85,0,*6F
1514959394.55,62218,6.88,72244.0,-14.23,-29.01,-32.91,0,*68
1514959395.77,62219,6.88,72244.5,-14.23,-28.85,-32.91,0,*64
1514959397.05,62220,6.88,72244.0,-14.23,-29.01,-33.09,0,*63
1514959398.33,62221,6.88,72244.5,-14.23,-29.17,-33.09,0,*65
1514959399.6,62222,6.88,72244.5,-14.25,-29.17,-33.03,0,*6A
1514959400.87,62223,6.88,72244.5,-14.25,-29.13,-33.21,0,*6F
1514959402.14,62224,6.88,72244.3,-14.25,-29.01,-33.03,0,*6B
1514959403.41,62225,6.88,72242.5,-14.25,-29.13,-33.03,0,*69
1514959404.69,62226,6.88,72246.8,-14.25,-29.01,-33.03,0,*69
1514959405.93,62227,6.88,72244.8,-14.27,-29.17,-33.15,0,*6A
1514959407.18,62228,6.88,72244.0,-14.27,-29.17,-33.15,0,*65
1514959408.4,62229,6.88,72244.3,-14.27,-29.07,-33.15,0,*65
1514959409.62,62230,6.88,72240.8,-14.27,-29.07,-32.91,0,*60
1514959410.87,62231,6.88,72246.0,-14.27,-29.01,-33.15,0,*6A
1514959412.12,62232,6.88,72244.5,-14.27,-29.07,-33.09,0,*62
1514959413.36,62233,6.88,72240.3,-14.27,-29.07,-33.09,0,*63
1514959414.64,62234,6.88,72242.5,-14.27,-29.01,-33.09,0,*62
1514959415.88,62235,6.88,72242.5,-14.27,-29.07,-33.09,0,*65
1514959417.16,62236,6.88,72242.5,-14.27,-28.91,-33.09,0,*68
1514959418.41,62237,6.88,72236.8,-14.27,-29.01,-32.91,0,*61
1514959419.63,62238,6.88,72244.5,-14.27,-28.85,-32.91,0,*63
1514959420.91,62239,6.88,72238.5,-14.27,-28.91,-32.97,0,*61
1514959422.13,62240,6.88,72240.5,-14.27,-28.85,-32.91,0,*6C
1514959423.38,62241,6.88,72238.5,-14.27,-28.69,-32.79,0,*69
1514959424.63,62242,6.88,72238.8,-14.31,-28.97,-33.03,0,*60
1514959425.9,62243,6.88,72240.8,-14.31,-29.13,-33.21,0,*6C
1514959427.15,62244,6.88,72240.8,-14.33,-29.13,-33.21,0,*69
1514959428.4,62245,6.88,72240.3,-14.33,-28.91,-33.03,0,*63
1514959429.67,62246,6.88,72238.3,-14.33,-28.91,-32.97,0,*6C
1514959430.95,62247,6.88,72240.5,-14.33,-28.63,-32.79,0,*60
1514959432.25,62248,6.88,72238.8,-14.31,-28.79,-32.85,0,*65
1514959433.53,62249,6.88,72240.3,-14.31,-28.91,-33.03,0,*6D
1514959434.75,62250,6.88,72240.8,-14.33,-29.07,-33.03,0,*69
1514959435.97,62251,6.88,72242.5,-14.33,-29.07,-33.03,0,*68
1514959437.24,62252,6.88,72242.0,-14.33,-28.79,-32.97,0,*6F
1514959438.47,62253,6.88,72240.8,-14.33,-28.97,-33.03,0,*62
1514959439.72,62254,6.88,72240.0,-14.33,-28.91,-33.03,0,*63
1514959440.96,62255,6.88,72242.0,-14.31,-29.07,-33.15,0,*69
1514959442.21,62256,6.88,72240.8,-14.33,-29.29,-33.21,0,*63
1514959443.47,62257,6.88,72240.8,-14.33,-29.39,-33.37,0,*64
1514959444.72,62258,6.88,72240.3,-14.33,-29.23,-33.31,0,*66
1514959446.0,62259,6.88,72238.0,-14.37,-29.29,-33.27,0,*6E
1514959447.26,62260,6.88,72242.8,-14.35,-29.17,-33.21,0,*6D
1514959448.51,62261,6.88,72242.5,-14.37,-29.17,-33.21,0,*6E
1514959449.78,62262,6.88,72240.3,-14.35,-29.01,-33.21,0,*68
1514959451.08,62263,6.88,72240.0,-14.35,-28.79,-32.85,0,*68
1514959452.35,62264,6.88,72240.3,-14.35,-29.01,-33.03,0,*6E
1514959453.63,62265,6.88,72240.0,-14.37,-28.79,-32.85,0,*6C
1514959454.88,62266,6.88,72242.8,-14.35,-28.85,-32.91,0,*6B
1514959456.15,62267,6.88,72244.8,-14.35,-28.85,-32.85,0,*6F
1514959457.45,62268,6.88,72244.5,-14.35,-29.01,-33.09,0,*68
1514959458.72,62269,6.88,72244.3,-14.35,-29.01,-33.03,0,*63
1514959459.96,62270,6.88,72244.3,-14.35,-28.97,-33.03,0,*65
1514959461.19,62271,6.88,72242.5,-14.37,-28.85,-32.91,0,*6F
1514959462.46,62272,6.88,72242.3,-14.35,-28.97,-33.09,0,*6D
1514959463.69,62273,6.88,72244.0,-14.37,-28.85,-32.91,0,*6D
1514959464.98,62274,6.88,72242.3,-14.35,-29.01,-33.09,0,*65
1514959466.28,62275,6.88,72246.0,-14.35,-29.29,-33.27,0,*62
1514959467.51,62276,6.88,72244.3,-14.37,-28.97,-32.91,0,*6B
1514959468.74,62277,6.88,72244.3,-14.37,-28.85,-32.91,0,*69
1514959470.01,62278,6.88,72242.5,-14.35,-28.97,-33.09,0,*67
1514959471.27,62279,6.88,72244.3,-14.35,-29.17,-33.21,0,*65
1514959472.54,62280,6.88,72242.5,-14.35,-28.79,-32.91,0,*60
1514959473.82,62281,6.88,72246.5,-14.35,-28.63,-32.69,0,*6D
1514959475.09,62282,6.88,72244.8,-14.35,-28.69,-32.85,0,*66
1514959476.36,62283,6.88,72242.0,-14.35,-28.69,-32.85,0,*67
1514959477.58,62284,6.88,72242.5,-14.37,-28.97,-33.03,0,*6C
1514959478.83,62285,6.88,72240.5,-14.35,-28.85,-32.91,0,*66
1514959480.06,62286,6.88,72242.0,-14.37,-28.97,-33.03,0,*6E
1514959481.33,62287,6.88,72242.3,-14.35,-28.85,-32.85,0,*61
1514959482.59,62288,6.88,72240.8,-14.37,-28.85,-33.09,0,*69
1514959483.88,62289,6.88,72242.5,-14.35,-29.17,-33.09,0,*60
1514959485.14,62290,6.88,72240.0,-14.35,-29.13,-33.21,0,*66
1514959486.42,62291,6.88,72240.0,-14.35,-29.17,-33.37,0,*64
1514959487.67,62292,6.88,72240.0,-14.37,-29.17,-33.21,0,*62
1514959488.94,62293,6.88,72236.0,-14.37,-29.01,-33.09,0,*6E
1514959490.22,62294,6.88,72238.0,-14.37,-29.01,-33.09,0,*69
1514959491.48,62295,6.88,72236.5,-14.37,-29.01,-32.91,0,*68
1514959492.75,62296,6.88,72236.0,-14.37,-29.13,-33.09,0,*68
1514959494.03,62297,6.88,72234.8,-14.37,-29.01,-33.09,0,*6A
1514959495.31,62298,6.88,72238.3,-14.37,-29.01,-33.09,0,*65
1514959496.59,62299,6.88,72236.8,-14.37,-29.29,-33.27,0,*62
1514959497.85,62300,6.88,72238.0,-14.37,-29.45,-33.43,0,*6B
1514959499.1,62301,6.88,72232.8,-14.37,-29.29,-33.21,0,*64
1514959500.4,62302,6.88,72238.8,-14.39,-29.17,-33.27,0,*62
1514959501.68,62303,6.88,72236.8,-14.37,-29.13,-33.27,0,*69
1514959502.96,62304,6.88,72236.0,-14.39,-29.17,-33.15,0,*65
1514959504.23,62305,6.88,72238.3,-14.43,-29.01,-33.15,0,*6E
1514959505.51,62306,6.88,72238.8,-14.39,-29.07,-33.09,0,*6B
1514959506.78,62307,6.88,72234.0,-14.39,-29.17,-33.15,0,*66
1514959508.06,62308,6.88,72236.0,-14.37,-29.17,-33.27,0,*66
1514959509.34,62309,6.88,72236.3,-14.37,-29.29,-33.27,0,*6A
1514959510.62,62310,6.88,72238.5,-14.39,-29.07,-33.27,0,*60
1514959511.92,62311,6.88,72238.3,-14.39,-29.01,-33.09,0,*6B
1514959513.2,62312,6.88,72236.5,-14.37,-28.79,-32.85,0,*6D
1514959514.48,62313,6.88,72238.8,-14.39,-28.59,-32.69,0,*62
1514959515.75,62314,6.88,72238.8,-14.39,-28.59,-32.57,0,*68
1514959517.02,62315,6.88,72238.5,-14.39,-28.47,-32.39,0,*6E
1514959518.29,62316,6.88,72238.0,-14.39,-28.59,-32.57,0,*6A
1514959519.57,62317,6.88,72234.5,-14.37,-28.63,-32.79,0,*60
1514959520.82,62318,6.88,72238.8,-14.37,-28.97,-33.09,0,*62
1514959522.07,62319,6.88,72236.0,-14.35,-28.97,-32.91,0,*61
1514959523.34,62320,6.88,72232.8,-14.37,-29.01,-33.09,0,*67
1514959524.62,62321,6.88,72236.5,-14.37,-29.01,-33.09,0,*66
1514959525.88,62322,6.88,72238.8,-14.37,-28.79,-32.91,0,*6B
1514959527.11,62323,6.88,72236.5,-14.37,-28.85,-32.91,0,*69
1514959528.36,62324,6.88,72238.8,-14.37,-28.69,-32.85,0,*69
1514959529.61,62325,6.88,72238.3,-14.35,-28.85,-32.91,0,*6D
1514959530.89,62326,6.88,72236.5,-14.37,-29.13,-33.09,0,*62
1514959532.16,62327,6.88,72240.0,-14.37,-29.01,-33.09,0,*60
1514959533.43,62328,6.88,72242.5,-14.35,-28.97,-33.09,0,*63
1514959534.66,62329,6.88,72242.5,-14.37,-28.97,-33.03,0,*6A
1514959535.93,62330,6.88,72242.0,-14.37,-29.13,-33.09,0,*65
1514959537.16,62331,6.88,72236.3,-14.37,-28.85,-33.21,0,*60
1514959538.41,62332,6.88,72236.8,-14.37,-29.01,-33.03,0,*6E
1514959539.69,62333,6.88,72236.0,-14.37,-29.01,-33.09,0,*65
1514959540.94,62334,6.88,72240.3,-14.37,-29.13,-33.03,0,*6B
1514959542.17,62335,6.88,72238.8,-14.37,-28.85,-33.03,0,*64
1514959543.45,62336,6.88,72238.5,-14.37,-29.01,-33.09,0,*60
1514959544.73,62337,6.88,72240.3,-14.37,-29.13,-33.09,0,*62
1514959545.99,62338,6.88,72234.8,-14.35,-29.13,-33.21,0,*65
1514959547.22,62339,6.88,72240.5,-14.37,-28.85,-33.03,0,*68
1514959548.52,62340,6.88,72242.8,-14.35,-29.13,-33.27,0,*6C
1514959549.8,62341,6.88,72240.5,-14.37,-29.35,-33.43,0,*69
1514959551.03,62342,6.88,72246.8,-14.37,-29.45,-33.55,0,*6A
1514959552.32,62343,6.88,72240.8,-14.37,-29.35,-33.43,0,*6B
1514959553.55,62344,6.88,72240.5,-14.37,-29.45,-33.37,0,*68
1514959554.81,62345,6.88,72242.8,-14.39,-29.57,-33.67,0,*61
1514959556.06,62346,6.88,72242.5,-14.39,-29.57,-33.67,0,*62
1514959557.34,62347,6.88,72244.3,-14.39,-29.57,-33.61,0,*65
1514959558.64,62348,6.88,72244.3,-14.39,-29.51,-33.61,0,*6C
1514959559.9,62349,6.88,72242.5,-14.39,-29.57,-33.67,0,*6D
1514959561.19,62350,6.88,72244.5,-14.39,-29.73,-33.77,0,*62
1514959562.47,62351,6.88,72240.0,-14.39,-29.61,-33.77,0,*60
1514959563.78,62352,6.88,72244.5,-14.39,-29.51,-33.43,0,*67
1514959565.08,62353,6.88,72244.0,-14.39,-29.39,-33.61,0,*68
1514959566.34,62354,6.88,72240.8,-14.43,-29.57,-33.67,0,*6C
1514959567.59,62355,6.88,72242.8,-14.43,-29.57,-33.67,0,*6D
1514959568.9,62356,6.88,72242.5,-14.43,-29.51,-33.77,0,*69
1514959570.18,62357,6.88,72244.0,-14.43,-29.57,-33.77,0,*6E
1514959571.43,62358,6.88,72244.3,-14.43,-29.57,-33.67,0,*60
1514959572.68,62359,6.88,72240.8,-14.45,-29.67,-33.89,0,*64
1514959573.98,62360,6.88,72240.8,-14.43,-29.73,-33.77,0,*6C
1514959575.28,62361,6.88,72244.5,-14.43,-29.51,-33.61,0,*6A
1514959576.59,62362,6.88,72244.5,-14.47,-29.39,-33.49,0,*69
1514959577.84,62363,6.88,72242.5,-14.47,-29.57,-33.55,0,*6D
1514959579.09,62364,6.88,72238.3,-14.45,-29.57,-33.49,0,*65
1514959580.34,62365,6.88,72242.8,-14.45,-29.39,-33.55,0,*61
1514959581.57,62366,6.88,72240.0,-14.45,-29.45,-33.67,0,*68
1514959582.85,62367,6.88,72240.8,-14.47,-29.57,-33.73,0,*6D
1514959584.11,62368,6.88,72242.0,-14.47,-29.57,-33.67,0,*67
1514959585.33,62369,6.88,72240.8,-14.45,-29.57,-33.55,0,*65
1514959586.61,62370,6.88,72244.3,-14.45,-29.39,-33.49,0,*68
1514959587.91,62371,6.88,72238.5,-14.47,-29.39,-33.49,0,*6B
1514959589.17,62372,6.88,72240.8,-14.47,-29.45,-33.67,0,*6F
1514959590.45,62373,6.88,72242.0,-14.45,-29.39,-33.49,0,*6B
1514959591.75,62374,6.88,72242.5,-14.47,-29.29,-33.49,0,*6F
1514959593.05,62375,6.88,72242.5,-14.47,-29.39,-33.49,0,*6F
1514959594.3,62376,6.88,72244.8,-14.45,-29.45,-33.49,0,*65
1514959595.58,62377,6.88,72246.8,-14.47,-29.57,-33.49,0,*65
1514959596.88,62378,6.88,72240.8,-14.47,-29.29,-33.49,0,*63
1514959598.13,62379,6.88,72244.0,-14.47,-29.45,-33.55,0,*65
1514959599.41,62380,6.88,72242.0,-14.47,-29.23,-33.31,0,*61
1514959600.71,62381,6.88,72236.0,-14.47,-28.75,-32.79,0,*6F
1514959601.98,62382,6.88,72236.3,-14.47,-28.79,-32.91,0,*66
1514959603.24,62383,6.88,72238.8,-14.45,-28.91,-33.03,0,*69
1514959604.49,62384,6.88,72240.0,-14.45,-28.91,-33.15,0,*69
1514959605.72,62385,6.88,72240.3,-14.45,-29.23,-33.37,0,*60
1514959606.97,62386,6.88,72244.5,-14.45,-29.29,-33.37,0,*69
1514959608.22,62387,6.88,72246.3,-14.47,-29.07,-33.15,0,*66
1514959609.44,62388,6.88,72242.5,-14.45,-29.23,-33.21,0,*6A
1514959610.69,62389,6.88,72244.5,-14.47,-29.07,-33.15,0,*68
1514959611.97,62390,6.88,72244.3,-14.45,-28.75,-32.75,0,*61
1514959613.23,62391,6.88,72240.8,-14.45,-28.75,-32.97,0,*6C
1514959614.51,62392,6.88,72238.5,-14.45,-28.63,-32.79,0,*68
1514959615.77,62393,6.88,72236.8,-14.45,-28.53,-32.75,0,*66
1514959617.05,62394,6.88,72238.5,-14.43,-28.69,-32.75,0,*6E
1514959618.32,62395,6.88,72242.5,-14.39,-28.69,-32.85,0,*6D
1514959619.63,62396,6.88,72242.3,-14.43,-28.75,-32.75,0,*61
1514959620.9,62397,6.88,72240.3,-14.43,-28.47,-32.51,0,*67
1514959622.18,62398,6.88,72236.5,-14.43,-28.59,-32.69,0,*6C
1514959623.45,62399,6.88,72240.3,-14.39,-28.75,-32.91,0,*69
1514959624.76,62400,6.88,72240.8,-14.39,-29.17,-33.27,0,*67
1514959626.06,62401,6.88,72238.0,-14.39,-29.39,-33.49,0,*62
1514959627.37,62402,6.88,72236.8,-14.39,-29.39,-33.49,0,*61
1514959628.64,62403,6.88,72240.5,-14.39,-28.69,-32.97,0,*66
1514959629.89,62404,6.88,72242.8,-14.39,-28.69,-32.91,0,*67
1514959631.17,62405,6.88,72240.5,-14.39,-29.23,-33.31,0,*62
1514959632.47,62406,6.88,72244.5,-14.39,-28.91,-33.09,0,*62
1514959633.77,62407,6.88,72244.5,-14.39,-29.01,-33.09,0,*6B
1514959635.05,62408,6.88,72244.3,-14.39,-28.85,-33.09,0,*69
1514959636.3,62409,6.88,72240.5,-14.39,-28.69,-32.91,0,*6A
1514959637.57,62410,6.88,72236.3,-14.39,-28.75,-32.91,0,*6F
1514959638.85,62411,6.88,72238.0,-14.39,-28.91,-33.15,0,*69
1514959640.13,62412,6.88,72234.5,-14.39,-28.75,-32.91,0,*6D
1514959641.38,62413,6.88,72232.3,-14.37,-28.85,-33.09,0,*6D
1514959642.63,62414,6.88,72238.3,-14.35,-28.85,-33.03,0,*62
1514959643.9,62415,6.88,72238.5,-14.35,-28.79,-33.03,0,*60
1514959645.15,62416,6.88,72238.0,-14.37,-28.79,-32.91,0,*6B
1514959646.42,62417,6.88,72234.5,-14.35,-28.79,-33.03,0,*62
1514959647.69,62418,6.88,72234.3,-14.35,-28.85,-33.09,0,*64
1514959648.94,62419,6.88,72234.5,-14.35,-28.53,-32.69,0,*69
1514959650.21,62420,6.88,72232.3,-14.35,-28.47,-32.69,0,*66
1514959651.47,62421,6.88,72242.5,-14.35,-28.47,-32.69,0,*67
1514959652.77,62422,6.88,72234.8,-14.35,-28.63,-32.79,0,*63
1514959654.05,62423,6.88,72236.5,-14.33,-28.63,-32.79,0,*64
1514959655.32,62424,6.88,72236.5,-14.33,-28.75,-32.85,0,*67
1514959656.57,62425,6.88,72236.0,-14.33,-28.91,-33.03,0,*63
1514959657.79,62426,6.88,72234.8,-14.33,-28.97,-33.15,0,*61
1514959659.07,62427,6.88,72236.0,-14.31,-28.91,-33.03,0,*63
1514959660.37,62428,6.88,72240.0,-14.31,-28.75,-32.85,0,*69
1514959661.68,62429,6.88,72238.8,-14.31,-28.59,-32.75,0,*69
1514959662.97,62430,6.88,72242.3,-14.31,-28.79,-32.97,0,*6F
1514959664.22,62431,6.88,72238.8,-14.31,-28.97,-33.03,0,*62
1514959665.52,62432,6.88,72236.0,-14.31,-28.59,-32.79,0,*6F
1514959666.8,62433,6.88,72236.5,-14.33,-28.63,-32.79,0,*65
1514959668.09,62434,6.88,72236.5,-14.31,-28.47,-32.79,0,*66
1514959669.34,62435,6.88,72230.5,-14.27,-28.69,-32.79,0,*6C
1514959670.59,62436,6.88,72232.5,-14.27,-28.75,-32.91,0,*64
1514959671.86,62437,6.88,72234.8,-14.27,-28.91,-32.97,0,*69
1514959673.14,62438,6.88,72232.3,-14.27,-29.17,-33.43,0,*61
1514959674.38,62439,6.88,72232.5,-14.27,-29.23,-33.49,0,*6D
1514959675.66,62440,6.88,72234.3,-14.27,-29.39,-33.49,0,*68
1514959676.93,62441,6.88,72232.8,-14.27,-29.39,-33.61,0,*63
1514959678.18,62442,6.88,72238.0,-14.27,-29.23,-33.43,0,*6B
1514959679.46,62443,6.88,72232.3,-14.27,-29.17,-33.43,0,*6D
1514959680.73,62444,6.88,72232.5,-14.27,-29.17,-33.43,0,*6A
1514959681.99,62445,6.88,72230.8,-14.27,-29.39,-33.67,0,*61
1514959683.21,62446,6.88,72232.8,-14.27,-29.57,-33.83,0,*60
1514959684.46,62447,6.88,72234.3,-14.27,-29.45,-33.77,0,*69
1514959685.73,62448,6.88,72232.8,-14.27,-29.39,-33.61,0,*6A
1514959687.0,62449,6.88,72230.8,-14.27,-29.35,-33.61,0,*67
1514959688.27,62450,6.88,72234.0,-14.27,-29.39,-33.61,0,*63
1514959689.53,62451,6.88,72230.0,-14.27,-29.39,-33.67,0,*64
1514959690.78,62452,6.88,72232.3,-14.27,-29.61,-34.01,0,*6D
1514959692.0,62453,6.88,72234.3,-14.27,-29.45,-33.83,0,*67
1514959693.25,62454,6.88,72234.0,-14.27,-29.45,-33.61,0,*6C
1514959694.5,62455,6.88,72232.3,-14.31,-29.45,-33.67,0,*6C
1514959695.78,62456,6.88,72236.3,-14.31,-29.23,-33.31,0,*6C
1514959697.05,62457,6.88,72238.5,-14.31,-29.13,-33.37,0,*68
1514959698.3,62458,6.88,72234.3,-14.31,-28.97,-33.21,0,*6D
1514959699.55,62459,6.88,72232.5,-14.27,-29.07,-33.43,0,*67
1514959700.82,62460,6.88,72234.5,-14.27,-29.39,-33.61,0,*60
1514959702.07,62461,6.88,72236.8,-14.27,-29.23,-33.49,0,*60
1514959703.32,62462,6.88,72238.5,-14.27,-29.39,-33.67,0,*64
1514959704.6,62463,6.88,72232.0,-14.27,-29.39,-33.61,0,*63
1514959705.82,62464,6.88,72232.3,-14.27,-29.57,-33.83,0,*60